STARLINK-34587

Last updated on Sat Aug 02 2025 00:02:05 GMT+0000 (Coordinated Universal Time)

1 64735U 25144M 25213.58335648 -.00527631 00000+0 -13963-1 0 9994 2 64735 53.1594 124.7958 0001739 91.7866 248.3792 15.39947403 6036

Satellite not in orbit

STARLINK-34587